Temperature
29 29 29 31 32 32 33 33 33 33 34 33 32 32 32 32 32 32 31 29 27 26 25 24 23 22 21 20 20 20 20 19 19 19 19 19 19 19 18 18 18 18 18 18
29 29 31 32 33 32 32 32 32 33 34 33 32 32 33 33 33 32 30 29 28 26 25 24 23 22 21 20 20 20 19 19 19 19 19 19 19 18 18 18 18 18 18 18
29 31 32 32 32 32 32 32 32 32 33 33 32 31 32 32 32 31 30 29 29 27 25 24 23 22 21 20 20 19 19 19 19 19 19 18 18 18 18 18 18 18 18 18
30 32 32 31 31 32 31 32 33 32 32 31 32 30 31 31 31 31 31 30 29 27 26 24 23 22 21 20 20 19 19 19 19 19 18 18 18 18 18 18 18 18 18 18
30 31 31 31 31 32 32 33 32 32 31 31 32 31 30 30 30 30 30 30 29 27 26 24 23 22 21 20 20 19 19 19 19 18 18 18 18 18 18 18 18 18 18 18
31 32 32 32 32 32 32 32 32 31 31 29 30 30 30 30 29 29 30 29 28 27 26 24 23 22 21 20 20 19 19 19 18 18 18 18 18 18 18 18 18 18 18 18
30 31 32 32 32 32 32 30 29 29 29 29 31 30 30 30 30 30 30 29 28 27 26 24 23 22 21 20 20 19 19 18 18 18 18 18 18 18 18 18 18 18 18 18
29 29 31 32 31 31 31 31 29 28 28 29 30 29 30 31 31 30 30 29 28 27 26 24 23 22 21 20 20 19 19 18 18 18 18 18 18 18 18 18 18 18 18 18
30 30 32 33 32 32 31 31 32 31 30 29 29 29 30 31 31 30 29 28 28 27 26 24 23 22 21 20 20 19 19 18 18 18 18 18 18 18 17 17 17 17 18 17
31 30 32 33 32 32 32 32 31 30 28 28 28 29 28 29 29 30 29 28 27 26 25 24 23 22 21 21 20 19 19 19 18 18 18 18 18 17 17 17 17 17 17 17
31 30 31 32 31 31 31 31 31 30 30 29 28 27 29 28 29 29 29 27 27 26 25 24 23 22 21 20 20 19 19 18 18 18 18 17 17 17 17 17 17 17 17 17
31 30 30 31 32 33 32 31 31 29 29 29 29 27 28 27 28 29 28 26 26 25 24 23 22 21 21 20 19 19 18 18 18 18 17 17 17 17 17 17 17 17 17 17
31 29 28 29 30 31 31 31 31 31 30 29 29 27 27 27 27 28 27 26 25 24 23 22 22 21 20 20 19 19 18 18 18 17 17 17 17 17 17 17 17 17 17 17
30 29 29 28 29 30 30 31 31 31 29 29 29 27 27 27 27 26 25 25 24 24 23 22 21 20 20 19 19 19 18 18 17 17 17 17 17 16 16 16 16 16 16 16
30 29 29 29 30 30 30 30 31 31 31 29 28 27 26 26 27 26 25 24 23 23 22 21 21 20 19 19 18 18 18 17 17 17 17 16 16 16 16 16 16 16 16 16
29 28 28 28 29 30 29 30 30 31 31 30 28 26 26 26 26 25 25 24 23 22 22 21 20 19 19 18 18 18 17 17 17 17 16 16 16 16 16 16 16 16 16 16
28 27 27 27 28 28 28 29 30 30 31 30 28 26 25 25 25 24 24 23 22 22 21 20 20 19 18 18 18 17 17 17 17 16 16 16 16 16 16 15 15 15 15 15
27 26 27 27 27 26 28 31 31 30 30 30 28 26 25 24 23 23 23 22 22 21 20 19 19 18 18 18 17 17 17 17 16 16 16 16 16 15 15 15 15 15 15 15
27 26 27 27 26 27 28 29 30 29 28 29 27 26 25 24 23 22 21 21 20 20 19 19 18 18 17 17 17 16 16 16 16 16 15 15 15 15 15 15 14 14 14 14
27 26 26 26 25 25 25 27 29 29 27 28 26 25 25 24 23 21 20 19 19 18 18 18 17 17 16 16 16 16 16 15 15 15 15 15 15 15 14 14 14 14 14 14
25 25 25 25 25 25 25 25 27 26 25 26 25 24 24 23 22 20 19 18 17 17 17 17 17 16 16 16 16 15 15 15 15 15 15 15 14 14 14 14 14 14 13 13
25 25 25 25 24 23 24 24 24 23 24 24 23 23 22 20 19 18 17 17 17 16 16 16 16 16 15 15 15 15 14 14 14 14 14 14 14 14 14 14 13 13 13 13
25 25 26 25 24 22 23 22 22 22 22 22 22 21 20 19 18 17 17 16 16 16 15 15 15 15 15 15 15 14 14 14 14 14 13 13 13 13 13 13 13 13 13 12
24 25 24 23 22 22 22 21 22 21 21 21 20 20 19 18 17 17 16 15 15 15 15 15 14 14 14 14 14 14 14 13 13 13 13 13 13 12 13 12 12 12 12 12
21 23 23 21 21 21 21 21 20 20 20 20 19 19 18 17 16 15 15 14 14 14 14 14 14 14 13 13 13 13 13 13 13 12 12 12 12 12 12 12 12 12 12 12
21 21 21 21 21 21 19 19 19 19 19 18 18 17 17 16 15 14 14 13 13 13 13 13 13 13 13 12 12 12 12 12 12 12 12 11 11 11 11 11 11 10 10 10
Wind_Speed
13 13 14 15 16 16 14 12 9 7 5 5 7 7 9 9 8 8 10 12 13 13 12 12 12 13 12 11 11 11 10 9 8 7 7 7 6 5 5 5 8 11 11 10
13 17 18 16 14 13 14 14 12 7 6 5 8 9 7 7 8 7 8 10 12 12 12 12 12 13 13 12 11 11 10 10 9 8 6 5 6 6 6 5 7 10 10 10
20 13 15 16 15 13 14 13 12 9 6 7 9 10 9 8 7 8 10 11 12 13 13 13 12 12 12 12 12 11 10 9 9 8 6 5 4 4 5 6 6 7 9 9
17 20 12 13 15 14 13 13 13 11 10 9 10 10 7 8 8 9 9 10 10 11 12 12 13 12 12 12 12 10 10 9 8 8 8 9 7 7 7 6 6 7 8 8
16 16 17 15 15 14 13 11 11 11 11 13 12 10 5 7 7 7 9 9 9 10 12 10 10 11 11 11 11 10 10 9 8 8 8 8 7 6 5 6 7 8 7 7
18 16 15 15 14 13 12 11 10 11 12 14 14 12 6 5 5 6 6 6 8 10 12 11 10 10 9 10 10 10 10 8 8 8 8 8 9 8 6 6 7 7 6 7
19 19 16 13 15 15 13 11 9 10 10 12 11 11 4 7 7 5 7 6 7 9 12 11 11 11 9 9 9 9 9 8 9 9 9 8 8 8 7 7 7 7 6 7
18 17 18 15 17 14 16 16 12 9 8 7 7 7 5 10 9 7 8 8 8 10 11 11 10 10 9 9 9 8 8 8 8 8 8 7 8 6 6 7 7 7 6 6
14 17 18 17 16 18 18 17 18 15 13 8 6 6 8 10 10 9 9 9 9 10 11 12 11 9 9 8 8 7 7 7 7 7 7 7 7 7 6 6 6 5 5 6
17 12 15 18 14 18 18 16 12 13 11 10 7 8 5 8 8 10 10 10 10 11 11 10 10 9 8 8 7 6 6 6 5 5 5 6 5 5 4 4 5 5 5 5
21 14 12 16 17 18 18 18 14 11 11 11 7 2 1 8 9 10 11 11 12 11 12 10 9 9 8 8 7 6 6 5 5 5 4 3 4 4 5 5 5 4 4 5
18 13 12 14 16 17 18 18 16 11 10 11 8 3 3 4 7 10 12 11 11 11 11 11 10 9 8 7 7 6 5 5 4 4 3 3 3 3 3 3 3 3 4 4
15 11 12 13 14 16 16 18 17 15 12 11 10 5 9 7 6 11 13 12 11 11 11 10 9 8 8 7 6 6 5 5 4 4 3 3 3 3 2 2 2 2 3 4
10 12 15 15 11 14 16 17 17 16 12 12 8 6 8 9 9 11 12 12 10 10 11 10 9 8 7 7 6 5 5 4 5 4 4 4 3 3 2 2 2 2 3 4
10 14 16 16 13 11 14 16 17 17 14 11 6 6 8 8 10 12 12 12 11 10 10 10 9 8 7 7 6 6 5 6 6 5 4 3 3 3 3 3 3 3 3 3
10 11 14 16 15 13 13 15 15 16 13 10 7 5 6 8 9 10 11 12 11 9 10 9 9 8 8 6 5 6 5 6 6 5 4 3 4 4 4 4 4 4 5 5
13 10 13 14 13 13 15 16 15 13 12 9 7 8 9 9 9 10 10 11 11 9 9 9 8 8 7 6 5 5 5 6 5 4 4 4 4 5 5 5 6 6 6 6
9 11 10 12 12 14 11 11 11 11 7 6 10 14 12 12 11 10 9 10 10 10 9 8 7 7 7 7 6 6 6 6 5 4 4 4 5 5 5 6 6 6 6 6
9 9 12 12 13 12 8 7 8 8 6 8 13 15 15 16 13 10 9 10 9 9 8 8 7 8 7 6 7 6 6 6 6 5 5 5 4 5 6 6 6 6 6 6
13 9 12 11 11 10 6 5 4 5 7 9 14 13 14 13 8 8 9 10 10 9 8 8 8 8 7 6 6 7 7 6 6 5 5 5 5 5 6 6 6 6 6 6
16 14 15 13 11 6 3 4 4 4 5 9 12 12 11 7 9 12 12 11 10 9 9 9 9 8 7 7 7 8 8 7 6 6 6 6 6 6 6 5 5 5 6 7
15 15 15 14 12 4 2 3 2 4 7 9 11 12 13 15 16 14 13 11 10 9 9 8 8 8 7 7 8 9 8 6 7 7 8 7 6 6 6 6 5 5 6 6
11 8 6 4 4 9 9 9 9 8 8 10 12 13 14 15 15 14 12 10 9 9 8 7 8 9 8 7 8 8 7 6 7 8 9 8 8 7 6 6 5 4 4 5
3 3 6 8 11 12 12 12 11 10 7 11 13 13 14 14 14 13 11 10 9 8 8 7 8 9 8 8 8 8 7 7 9 9 8 8 9 9 9 8 7 6 5 5
4 3 5 9 12 12 10 11 12 10 10 12 13 13 14 14 14 13 11 9 8 8 7 8 9 9 9 9 9 8 7 8 9 9 9 9 9 10 12 13 12 11 9 7
1 1 3 5 8 9 11 10 11 11 11 13 13 14 14 14 14 13 11 9 9 9 8 9 10 10 10 10 9 8 7 7 8 8 7 8 8 9 10 11 13 19 16 19
Wind_Direction
212 225 233 232 231 250 275 287 276 253 210 216 236 239 210 204 204 182 169 165 166 173 172 167 165 165 165 165 169 169 175 170 168 174 182 188 188 185 189 188 178 176 184 180
221 228 238 247 247 251 265 274 271 250 224 234 255 251 232 207 197 179 173 174 170 169 166 169 169 171 172 171 171 172 178 175 177 182 185 185 183 189 196 194 176 182 187 183
225 232 225 237 245 246 252 258 265 267 246 233 253 252 240 225 209 179 182 185 176 172 170 168 174 174 174 176 177 179 177 176 183 177 174 183 180 195 200 185 177 185 185 189
233 243 238 231 240 241 246 250 261 268 266 255 249 251 224 209 208 198 192 184 173 164 162 171 176 177 179 178 178 174 174 177 180 177 180 185 190 197 200 187 182 184 183 187
227 229 236 234 237 238 246 254 255 259 258 264 260 260 227 196 204 203 196 180 166 159 154 166 176 169 173 174 176 174 170 175 177 183 189 193 202 205 202 190 182 182 184 191
239 232 228 233 235 237 241 248 249 254 257 251 252 255 235 186 181 200 183 168 151 153 145 155 165 157 161 166 169 170 169 175 177 188 197 201 206 207 204 194 184 184 187 196
231 237 225 223 229 221 223 229 228 229 234 248 249 245 206 160 157 174 153 154 143 144 139 144 151 150 155 162 166 165 168 178 185 192 201 207 211 208 209 207 197 193 193 197
217 225 221 214 224 220 214 226 233 239 238 240 236 240 173 133 132 143 143 143 145 141 135 136 136 142 152 159 163 164 169 178 187 195 201 206 208 209 212 212 210 205 206 202
220 222 213 209 213 231 218 222 241 256 271 267 214 195 150 144 146 147 141 144 142 134 134 137 136 140 143 146 152 157 161 170 180 191 196 202 205 206 210 210 209 210 206 202
254 243 210 199 206 223 237 226 233 250 267 272 243 216 192 170 162 151 141 140 134 133 132 131 134 133 131 135 136 139 151 167 176 183 194 200 197 197 206 216 215 208 207 212
240 254 227 198 203 215 220 231 235 246 253 262 256 231 157 165 166 156 140 135 135 135 130 127 124 122 125 126 128 129 138 149 163 178 187 191 186 191 199 212 219 213 207 206
225 238 241 216 207 217 219 226 226 236 250 262 266 195 131 152 165 142 124 119 118 121 120 124 125 122 122 122 125 125 129 138 145 153 161 167 173 178 185 197 202 201 192 194
213 231 237 230 209 208 224 224 229 229 239 248 258 165 139 147 153 127 122 120 121 120 122 119 116 114 112 112 113 117 122 130 135 132 136 133 132 135 149 168 172 179 179 186
220 224 233 233 217 206 217 224 223 227 232 236 240 154 157 156 146 128 123 126 126 124 120 117 111 107 104 101 101 104 102 107 116 115 112 111 112 116 126 126 126 155 172 177
226 224 236 252 257 233 223 226 225 227 233 235 213 170 177 174 149 139 135 133 131 130 120 115 113 109 105 101 100 98 95 90 90 94 92 99 111 115 114 107 102 101 117 133
221 239 234 242 251 247 234 230 229 228 231 227 179 169 158 144 132 134 138 138 133 132 125 120 113 110 105 101 99 98 97 95 97 97 93 92 104 106 103 100 101 98 99 102
208 225 240 239 235 239 239 229 222 227 227 218 187 156 143 132 134 132 134 132 133 130 120 116 113 108 103 99 95 96 92 94 94 97 97 95 105 104 99 103 102 99 96 96
221 214 230 240 237 235 240 236 222 216 212 170 135 135 134 128 118 110 112 117 117 114 113 113 115 114 112 104 95 90 91 95 94 89 86 86 96 104 107 104 101 97 94 93
224 223 229 233 233 232 225 228 219 191 179 149 139 133 131 130 118 99 97 103 103 104 105 108 109 104 98 96 95 91 86 85 83 82 82 83 86 93 98 100 100 98 97 93
216 218 231 234 235 233 230 268 293 175 169 134 132 136 141 144 143 123 110 105 99 93 92 98 100 96 91 87 92 96 92 86 82 79 78 79 79 88 95 98 102 104 105 105
207 208 221 231 240 232 242 266 276 205 151 120 128 136 140 131 111 120 116 105 99 95 92 91 91 88 83 85 91 89 84 78 74 77 78 78 79 84 90 94 101 105 105 103
208 210 215 226 234 216 161 175 153 101 87 102 112 114 110 108 112 116 116 113 107 102 100 98 96 89 81 82 91 89 83 79 77 78 78 75 75 84 91 92 95 104 110 109
212 212 210 215 157 99 96 103 101 98 97 106 109 114 119 121 122 120 116 113 108 102 100 100 102 95 85 84 90 95 91 88 86 82 79 76 71 71 71 81 88 98 111 111
194 137 143 113 111 103 98 99 95 95 99 110 115 122 124 124 123 120 116 112 106 103 103 103 102 96 87 86 90 92 94 92 89 85 82 78 76 69 59 56 55 59 62 85
257 181 135 122 126 115 104 100 98 98 103 104 109 113 117 118 116 113 108 104 102 100 97 98 99 96 93 89 88 91 96 98 96 92 90 86 81 79 71 64 52 58 52 57
334 53 152 139 141 129 120 112 109 108 107 108 108 108 109 112 114 111 105 99 97 97 96 95 97 96 94 91 88 85 91 101 103 101 96 96 95 93 93 90 76 59 63 61
Height
1475 1477 1475 1468 1463 1461 1458 1459 1459 1454 1448 1455 1461 1463 1461 1463 1465 1468 1472 1478 1484 1488 1493 1497 1501 1504 1506 1509 1511 1514 1516 1519 1521 1524 1526 1530 1533 1536 1539 1542 1544 1547 1549 1551
1473 1473 1466 1460 1457 1458 1460 1464 1460 1453 1449 1455 1460 1461 1457 1458 1461 1465 1470 1476 1481 1486 1491 1495 1499 1502 1504 1506 1508 1511 1513 1516 1518 1521 1524 1527 1531 1534 1536 1539 1542 1544 1547 1549
1469 1461 1457 1459 1460 1462 1463 1464 1460 1458 1451 1452 1460 1466 1460 1458 1459 1465 1469 1473 1477 1482 1487 1491 1496 1499 1501 1503 1506 1508 1511 1513 1516 1519 1522 1526 1529 1532 1535 1537 1539 1542 1544 1547
1462 1456 1455 1459 1460 1460 1466 1457 1456 1457 1462 1465 1462 1477 1463 1458 1460 1463 1466 1470 1474 1478 1483 1489 1493 1496 1499 1501 1504 1507 1509 1512 1514 1517 1520 1523 1525 1528 1531 1534 1537 1539 1542 1544
1457 1453 1455 1458 1457 1456 1459 1452 1455 1458 1463 1467 1461 1470 1466 1459 1464 1464 1464 1467 1471 1476 1481 1486 1490 1493 1497 1500 1503 1505 1507 1510 1512 1515 1518 1521 1524 1527 1529 1532 1535 1537 1539 1541
1449 1446 1448 1451 1451 1452 1453 1456 1458 1459 1463 1479 1467 1470 1471 1461 1463 1463 1464 1467 1471 1475 1479 1485 1489 1492 1496 1499 1501 1503 1505 1508 1510 1513 1515 1518 1521 1524 1527 1529 1531 1534 1536 1539
1453 1446 1444 1447 1452 1452 1455 1467 1481 1485 1484 1479 1460 1465 1463 1454 1456 1461 1463 1467 1470 1474 1479 1484 1488 1492 1495 1498 1500 1502 1504 1506 1508 1511 1513 1515 1518 1521 1523 1526 1528 1530 1533 1536
1457 1457 1443 1443 1449 1452 1456 1461 1480 1489 1485 1476 1465 1468 1456 1448 1453 1459 1462 1466 1470 1475 1480 1484 1489 1492 1495 1497 1499 1501 1502 1504 1506 1509 1511 1513 1515 1518 1520 1523 1525 1528 1530 1532
1444 1448 1434 1437 1441 1446 1452 1456 1452 1462 1466 1475 1471 1463 1455 1448 1453 1457 1462 1466 1470 1475 1480 1484 1489 1492 1495 1497 1498 1500 1501 1503 1505 1506 1508 1510 1513 1515 1517 1519 1522 1524 1526 1529
1433 1441 1431 1432 1438 1441 1443 1446 1454 1463 1477 1484 1474 1468 1467 1458 1456 1456 1460 1465 1470 1475 1480 1485 1489 1492 1495 1496 1498 1499 1500 1502 1504 1505 1507 1508 1510 1512 1514 1516 1518 1520 1522 1525
1432 1441 1435 1432 1441 1444 1447 1448 1450 1454 1458 1474 1482 1479 1455 1456 1456 1457 1461 1466 1471 1477 1481 1485 1489 1493 1495 1497 1498 1499 1500 1501 1502 1504 1505 1507 1508 1509 1511 1513 1515 1516 1519 1521
1428 1435 1440 1433 1427 1430 1436 1441 1446 1463 1464 1458 1467 1475 1453 1456 1456 1459 1463 1468 1474 1478 1482 1487 1490 1493 1495 1497 1498 1499 1500 1501 1501 1503 1504 1505 1506 1507 1509 1510 1512 1513 1515 1518
1426 1436 1451 1448 1439 1433 1435 1435 1437 1443 1451 1459 1466 1471 1454 1456 1459 1461 1466 1471 1475 1479 1484 1488 1491 1493 1495 1497 1499 1499 1501 1501 1502 1502 1502 1503 1504 1506 1507 1508 1509 1510 1512 1514
1424 1433 1443 1449 1442 1435 1438 1435 1434 1441 1453 1456 1456 1461 1457 1456 1459 1463 1468 1473 1477 1481 1485 1489 1492 1494 1496 1498 1499 1500 1500 1501 1502 1502 1502 1502 1503 1504 1505 1506 1507 1508 1510 1511
1424 1434 1434 1432 1428 1428 1433 1434 1433 1437 1439 1449 1452 1456 1459 1455 1459 1465 1469 1474 1479 1483 1486 1490 1493 1495 1497 1499 1500 1501 1501 1501 1502 1502 1502 1502 1503 1504 1505 1505 1506 1507 1508 1510
1426 1432 1434 1436 1429 1429 1433 1431 1431 1432 1434 1439 1447 1457 1453 1457 1462 1466 1470 1474 1478 1483 1487 1491 1494 1496 1498 1499 1501 1501 1502 1502 1502 1503 1503 1503 1503 1504 1505 1505 1506 1507 1508 1510
1426 1435 1440 1441 1432 1434 1442 1431 1430 1430 1428 1435 1447 1453 1456 1460 1464 1468 1472 1475 1480 1484 1488 1491 1494 1496 1498 1499 1501 1501 1502 1503 1503 1504 1504 1504 1504 1504 1505 1505 1506 1507 1509 1510
1427 1433 1436 1440 1441 1455 1435 1419 1420 1426 1428 1431 1440 1447 1454 1461 1467 1472 1475 1478 1482 1485 1489 1492 1495 1497 1499 1500 1501 1502 1503 1504 1504 1504 1505 1505 1504 1505 1505 1506 1507 1508 1510 1512
1424 1430 1435 1439 1445 1441 1430 1423 1422 1428 1435 1433 1441 1448 1455 1462 1469 1475 1478 1481 1484 1487 1490 1493 1495 1497 1499 1500 1501 1502 1503 1504 1505 1505 1505 1505 1506 1506 1507 1507 1508 1510 1511 1513
1423 1426 1434 1438 1447 1452 1439 1427 1425 1428 1441 1437 1442 1449 1454 1460 1467 1477 1481 1483 1486 1489 1491 1493 1495 1497 1499 1500 1501 1502 1503 1504 1505 1506 1506 1507 1507 1508 1508 1509 1511 1512 1513 1515
1427 1430 1434 1439 1443 1441 1434 1432 1431 1446 1449 1441 1445 1451 1455 1460 1466 1476 1481 1484 1487 1490 1492 1494 1496 1497 1499 1500 1501 1502 1503 1505 1506 1506 1507 1507 1508 1509 1510 1511 1512 1514 1515 1516
1425 1428 1432 1434 1443 1449 1435 1437 1442 1447 1444 1446 1449 1454 1459 1465 1471 1477 1481 1485 1488 1491 1493 1494 1496 1497 1499 1500 1501 1502 1503 1505 1506 1506 1507 1508 1509 1510 1511 1512 1513 1515 1516 1518
1418 1419 1421 1428 1437 1438 1438 1441 1444 1446 1448 1451 1454 1459 1464 1469 1474 1479 1483 1486 1489 1491 1493 1495 1496 1498 1499 1501 1502 1503 1504 1505 1506 1507 1507 1509 1510 1511 1512 1513 1514 1516 1518 1519
1419 1417 1423 1430 1437 1439 1442 1444 1446 1449 1451 1454 1458 1462 1466 1471 1476 1480 1484 1487 1490 1492 1494 1496 1497 1498 1500 1501 1502 1503 1505 1506 1507 1507 1508 1510 1511 1512 1513 1514 1516 1517 1518 1520
1428 1422 1425 1433 1439 1442 1446 1448 1450 1453 1455 1458 1462 1466 1470 1473 1477 1481 1484 1488 1490 1493 1495 1496 1497 1499 1500 1502 1503 1504 1506 1507 1508 1509 1510 1511 1512 1513 1514 1515 1517 1518 1519 1521
1426 1426 1428 1434 1437 1440 1448 1451 1454 1457 1459 1462 1465 1469 1473 1476 1479 1482 1486 1488 1491 1493 1495 1497 1498 1500 1501 1503 1505 1506 1507 1508 1509 1510 1512 1513 1514 1515 1516 1517 1519 1520 1521 1523